Flag for U.S.A. Weather past 2 weeks in Topeka, Kansas, U.S.A.

Now
71 °F

Sunny.


Feels Like: 75 °F
Forecast: 63 / 82 °F
Wind: 3 mph from Northeast

Location: Philip Billard Municipal Airport

Current Time: Jul 30, 2014 at 11:54:03 AM

Latest Report: Jul 30, 2014 at 10:53 AM


Visibility: 10 mi

Pressure: 30.12 "Hg

Humidity: 68%

Dew point: 60 °F

Location of TopekaLocation

Historic Weather in Topeka — Graph

°F

Topeka temperature yesterday

Maximum temperature yesterday: 85 °F (at 3:53 PM)
Minimum temperature yesterday: 60 °F (at 2:53 AM)
Average temperature yesterday: 73 °F

Past Weeks' High & Low Weather Summary

 TemperatureHumidityPressure
High102 °F (Jul 22, 6:53 PM)94% (Jul 18, 6:53 AM)30.23 "Hg (Jul 18, 6:53 AM)
Low52 °F (Jul 16, 4:58 AM)26% (Jul 27, 2:53 PM)29.71 "Hg (Jul 25, 6:53 PM)
Average77 °F64%30.00 "Hg
* Reported Jul 15 9:53 AM — Jul 30 9:53 AM, Topeka, Weather by CustomWeather, © 2014

Note: Actual official high and low records may vary slightly from our data, if they occured in-between our weather recording intervals... More about our weather records

Advertising

Topeka weather history for previous 24 hours

 ConditionsComfort  
Time TempWeatherWind HumidityBarometerVisibility
9:53 AM
Jul 30
69 °FSunny.6 mph73%30.10 "Hg10 mi
8:53 AM68 °FSunny.3 mph78%30.10 "Hg10 mi
7:53 AM68 °FPassing clouds.No wind78%30.09 "Hg10 mi
6:53 AM68 °FPassing clouds.No wind82%30.08 "Hg10 mi
5:53 AM68 °FPartly cloudy.3 mph82%30.07 "Hg10 mi
4:53 AM69 °FMostly cloudy.3 mph81%30.07 "Hg10 mi
3:53 AM70 °FOvercast.No wind79%30.07 "Hg10 mi
2:53 AM71 °FOvercast.No wind73%30.08 "Hg10 mi
1:53 AM71 °FOvercast.No wind73%30.08 "Hg10 mi
12:53 AM70 °FMostly cloudy.No wind79%30.09 "Hg10 mi
11:53 PM
Jul 29
72 °FPassing clouds.No wind71%30.09 "Hg10 mi
10:53 PM72 °FPassing clouds.No wind68%30.08 "Hg10 mi
9:53 PM72 °FClear.5 mph68%30.07 "Hg10 mi
8:53 PM75 °FPartly sunny.6 mph60%30.06 "Hg10 mi
7:53 PM79 °FPartly sunny.6 mph50%30.06 "Hg10 mi
6:53 PM82 °FOvercast.7 mph44%30.06 "Hg10 mi
5:53 PM84 °FOvercast.No wind38%30.08 "Hg10 mi
4:53 PM84 °FPartly sunny.No wind38%30.09 "Hg10 mi
3:53 PM85 °FSunny.5 mph39%30.11 "Hg10 mi
2:53 PM83 °FScattered clouds.7 mph43%30.13 "Hg10 mi
1:53 PM81 °FPartly sunny.6 mph44%30.15 "Hg10 mi
12:53 PM78 °FPartly sunny.9 mph48%30.17 "Hg10 mi
11:53 AM80 °FCloudy.3 mph45%30.17 "Hg10 mi
Weather by CustomWeather, © 2014

See weather overviewHow to use our weather pages